CZ-6A DEB

Satellite information

Favourite Embed

Satellite Type and Status

DEBRISIN ORBIT

Key statistics

Satellite CZ-6A DEB at a glance.

Uptime

334

Days in orbit

Revolutions

≈ 14.2

Per day

Orbit

LEO

Low Earth Orbit

Inclination

89.0

Latest

Satellite identification and parameters

Extended collection of information and parameters for CZ-6A DEB.

Object identification

Identified? True

Debris? True

Object name: CZ-6A DEB

International designator: 2024-140ADA

Object number (NORAD): 61834

Object ID (CCSDS): 61834

Country: PEOPLES REPUBLIC OF CHINA (PRC)

Current information (Y/N): Y

RCS size: SMALL

Orbital parameters

Period: 101.532 minutes

Inclination: 89.0118 deg

SMA: 7209.348 km

Apoapsis: 873.497 km

Periapsis: 788.929 km

RAAN: 314.2077 deg

Eccentricy: 0.0058652

Argument of periapsis: 240.5229 deg

Mean anomaly: 119.0102 deg

Mean motion: 14.18269551 rev/day

Mean motion (dot): 0.00001691 rev/day2

B* drag term: 0.0008017 1/REarth

Two-line elements (TLE)

Creation date: July 5, 2025, 11:16 p.m.

Reference frame: TEME

Reference center: EARTH

Epoch: July 5, 2025, 7:11 p.m. UTC

TLE line 0: 0 CZ-6A DEB

TLE line 1: 1 61834U 24140ADA 25186.79988132 .00001691 00000-0 80170-3 0 9998

TLE line 2: 2 61834 89.0118 314.2077 0058652 240.5229 119.0102 14.18269551 41309

Live tracking on map

Real-time ground track for satellite CZ-6A DEB.

In-orbit conjunctions

A list of the most updated potential collisions computed for object CZ-6A DEB.

Target Orbit TCA Probability of collision Miss distance Type
DELTA 2 R/B(1) LEO 2025-05-11 08:18:35 0.0001303982 913.0 (m) ROCKET BODY
DELTA 1 DEB SSO 2025-03-02 10:48:55 0.0002042714 887.0 (m) DEBRIS
SL-16 R/B LEO 2025-02-25 01:02:39 0.0001314998 813.0 (m) ROCKET BODY
FENGYUN 1C DEB SSO 2025-01-15 05:43:56 0.0001882593 831.0 (m) DEBRIS
CZ-6A DEB LEO 2025-01-04 10:27:40 0.0003689363 322.0 (m) DEBRIS

Associated space launch

18 Low Earth Orbit communication satellites with Ku, Q and V band payloads for the G60 constellation operated by Shanghai Spacecom Satellite Technology (SSST) with funding backed by the Shanghai local government. Initial constellation will consist of 1296 satellites by 2027 with long term plans to expand it to 12000 satellites.

CZ-6A DEB was lifted into orbit during the mission ‘Long March 6A | G60 Polar Group 01’, on board a Long March 6A space rocket.

The launch took place on Aug. 6, 2024, 6:42 a.m. from Launch Complex 9A.

For more information about the launch, click the button.

Launch to space Long March 6A | G60 Polar Group 01
Long March 6A | G60 Polar Group 01

Agency: N/A

Status: Launch Successful

Launch date: Aug. 6, 2024, 6:42 a.m. UTC

Rocket: Long March 6A

Launch pad: Launch Complex 9A

Location: Taiyuan Satellite Launch Center, People's Republic of China

...

Latest news about this satellite

News about space launch
Brightness of first Chinese broadband constellation satellites alarms astronomers

The first satellites of a Chinese broadband constellation are significantly brighter than those of Western systems, posing a new challenge for astronomers.

News about space launch
Chinese rocket stage breaks up into cloud of more than 700 pieces of space debris

HELSINKI — A Chinese Long March 6A rocket’s upper stage has fragmented into a cloud of over 700 pieces of space debris, adding to concerns about long-term orbital safety. China […]

News about space launch
China's Thousand Sails Megaconstellation Kicks Off with Dangerous Debris Field

China's Thousand Sails Megaconstellation Kicks Off with Dangerous Debris Field


Newsletter sign-up

Weekly statistics, charts and insights to help you stay on top of the space industry.